TimeCDT,TemperatureF,Dew PointF,Humidity,Sea Level PressureIn,VisibilityMPH,Wind Direction,Wind SpeedMPH,Gust SpeedMPH,PrecipitationIn,Events,Conditions,WindDirDegrees,DateUTC
12:15 AM,70.2,64.0,81,29.78,10.0,Calm,Calm,-,N/A,,Clear,0,2013-09-23 05:15:00
12:35 AM,69.8,64.4,83,29.78,10.0,Calm,Calm,-,N/A,,Clear,0,2013-09-23 05:35:00
12:55 AM,69.8,64.4,83,29.78,10.0,Calm,Calm,-,N/A,,Clear,0,2013-09-23 05:55:00
1:15 AM,69.6,64.2,83,29.78,10.0,Calm,Calm,-,N/A,,Clear,0,2013-09-23 06:15:00
1:35 AM,69.3,63.9,83,29.78,10.0,Calm,Calm,-,N/A,,Clear,0,2013-09-23 06:35:00
1:55 AM,67.5,63.1,86,29.77,10.0,NE,4.6,-,N/A,,Clear,40,2013-09-23 06:55:00
2:15 AM,67.6,63.5,87,29.77,10.0,Calm,Calm,-,N/A,,Clear,0,2013-09-23 07:15:00
2:35 AM,67.6,63.0,85,29.77,10.0,NE,3.5,-,N/A,,Clear,40,2013-09-23 07:35:00
2:55 AM,67.3,63.1,87,29.77,10.0,NE,3.5,-,N/A,,Clear,40,2013-09-23 07:55:00
3:15 AM,66.7,63.0,88,29.76,10.0,Calm,Calm,-,N/A,,Clear,0,2013-09-23 08:15:00
3:35 AM,66.7,63.0,88,29.75,10.0,Calm,Calm,-,N/A,,Clear,0,2013-09-23 08:35:00
3:55 AM,66.4,62.6,88,29.75,10.0,Calm,Calm,-,N/A,,Clear,0,2013-09-23 08:55:00
4:15 AM,66.2,62.4,88,29.75,10.0,Calm,Calm,-,N/A,,Clear,0,2013-09-23 09:15:00
4:35 AM,66.4,62.6,88,29.75,10.0,Calm,Calm,-,N/A,,Clear,0,2013-09-23 09:35:00
4:55 AM,66.2,62.2,87,29.75,10.0,Calm,Calm,-,N/A,,Clear,0,2013-09-23 09:55:00
5:15 AM,66.2,62.2,87,29.75,10.0,Calm,Calm,-,N/A,,Clear,0,2013-09-23 10:15:00
5:35 AM,65.7,62.1,88,29.76,10.0,Calm,Calm,-,N/A,,Clear,0,2013-09-23 10:35:00
5:55 AM,65.8,62.2,88,29.76,10.0,Calm,Calm,-,N/A,,Clear,0,2013-09-23 10:55:00
6:15 AM,65.8,62.6,89,29.77,10.0,Calm,Calm,-,N/A,,Clear,0,2013-09-23 11:15:00
6:35 AM,65.5,62.1,89,29.77,10.0,Calm,Calm,-,N/A,,Clear,0,2013-09-23 11:35:00
6:55 AM,65.5,62.1,89,29.77,10.0,Calm,Calm,-,N/A,,Clear,0,2013-09-23 11:55:00
7:15 AM,65.5,62.1,89,29.77,10.0,Calm,Calm,-,N/A,,Clear,0,2013-09-23 12:15:00
7:35 AM,64.9,61.7,89,29.78,10.0,Calm,Calm,-,N/A,,Clear,0,2013-09-23 12:35:00
7:55 AM,65.3,62.1,89,29.78,10.0,Calm,Calm,-,N/A,,Clear,0,2013-09-23 12:55:00
8:15 AM,66.6,63.5,90,29.79,10.0,Calm,Calm,-,N/A,,Clear,0,2013-09-23 13:15:00
8:35 AM,68.2,64.8,89,29.80,10.0,Calm,Calm,-,N/A,,Clear,0,2013-09-23 13:35:00
8:55 AM,70.3,65.5,85,29.80,10.0,NW,4.6,-,N/A,,Clear,310,2013-09-23 13:55:00
9:15 AM,72.9,65.7,78,29.80,10.0,Calm,Calm,-,N/A,,Clear,0,2013-09-23 14:15:00
9:35 AM,75.0,64.6,70,29.81,7.0,NNW,6.9,-,N/A,,Clear,330,2013-09-23 14:35:00
9:55 AM,77.0,64.2,65,29.82,7.0,NW,3.5,-,N/A,,Clear,320,2013-09-23 14:55:00
10:15 AM,78.3,61.9,57,29.82,7.0,NW,5.8,-,N/A,,Clear,320,2013-09-23 15:15:00
10:35 AM,79.7,62.4,55,29.82,7.0,Calm,Calm,-,N/A,,Clear,0,2013-09-23 15:35:00
10:55 AM,80.8,62.6,54,29.82,7.0,NNW,4.6,-,N/A,,Clear,340,2013-09-23 15:55:00
11:15 AM,81.9,62.1,51,29.82,10.0,NNW,4.6,-,N/A,,Clear,330,2013-09-23 16:15:00
11:35 AM,83.5,61.5,47,29.82,10.0,Calm,Calm,-,N/A,,Clear,0,2013-09-23 16:35:00
11:55 AM,84.2,61.2,46,29.81,7.0,Calm,Calm,-,N/A,,Clear,0,2013-09-23 16:55:00
12:15 PM,85.1,61.0,44,29.81,10.0,Calm,Calm,-,N/A,,Clear,0,2013-09-23 17:15:00
12:35 PM,86.0,59.4,40,29.80,7.0,NNW,8.1,-,N/A,,Clear,340,2013-09-23 17:35:00
12:55 PM,87.1,56.8,36,29.79,7.0,Calm,Calm,-,N/A,,Clear,0,2013-09-23 17:55:00
1:15 PM,87.8,56.5,34,29.78,7.0,Calm,Calm,-,N/A,,Clear,0,2013-09-23 18:15:00
1:35 PM,88.7,55.4,32,29.77,7.0,NNW,9.2,-,N/A,,Clear,330,2013-09-23 18:35:00
1:55 PM,88.9,55.8,32,29.76,7.0,Calm,Calm,-,N/A,,Clear,0,2013-09-23 18:55:00
2:15 PM,89.6,55.9,32,29.76,7.0,Calm,Calm,-,N/A,,Clear,0,2013-09-23 19:15:00
2:35 PM,90.0,55.0,30,29.75,7.0,Calm,Calm,-,N/A,,Clear,0,2013-09-23 19:35:00
2:55 PM,90.9,55.6,30,29.75,7.0,Calm,Calm,-,N/A,,Clear,0,2013-09-23 19:55:00
3:15 PM,91.2,54.5,29,29.75,10.0,Calm,Calm,-,N/A,,Clear,0,2013-09-23 20:15:00
3:35 PM,91.6,55.0,29,29.74,7.0,North,3.5,-,N/A,,Clear,360,2013-09-23 20:35:00
3:55 PM,91.4,53.2,27,29.74,10.0,Calm,Calm,-,N/A,,Clear,0,2013-09-23 20:55:00
4:15 PM,91.4,50.9,25,29.74,7.0,Calm,Calm,-,N/A,,Clear,0,2013-09-23 21:15:00
4:35 PM,91.4,52.0,26,29.73,7.0,Calm,Calm,-,N/A,,Clear,0,2013-09-23 21:35:00
4:55 PM,91.6,50.7,25,29.73,7.0,Calm,Calm,-,N/A,,Clear,0,2013-09-23 21:55:00
5:15 PM,91.6,53.1,27,29.73,7.0,Calm,Calm,-,N/A,,Clear,0,2013-09-23 22:15:00
5:35 PM,91.2,52.7,27,29.73,7.0,Calm,Calm,-,N/A,,Clear,0,2013-09-23 22:35:00
5:55 PM,91.0,51.3,26,29.73,5.0,Calm,Calm,-,N/A,,Haze,0,2013-09-23 22:55:00
6:15 PM,90.1,53.6,29,29.73,10.0,Calm,Calm,-,N/A,,Clear,0,2013-09-23 23:15:00
6:35 PM,88.7,54.7,31,29.73,10.0,Calm,Calm,-,N/A,,Clear,0,2013-09-23 23:35:00
6:55 PM,86.9,55.8,34,29.74,10.0,Calm,Calm,-,N/A,,Clear,0,2013-09-23 23:55:00
7:15 PM,85.3,57.2,38,29.74,7.0,Calm,Calm,-,N/A,,Clear,0,2013-09-24 00:15:00
7:35 PM,84.6,57.9,40,29.75,10.0,Calm,Calm,-,N/A,,Clear,0,2013-09-24 00:35:00
7:55 PM,82.8,60.1,46,29.75,10.0,Calm,Calm,-,N/A,,Clear,0,2013-09-24 00:55:00
8:15 PM,81.0,62.1,52,29.76,10.0,Calm,Calm,-,N/A,,Clear,0,2013-09-24 01:15:00
8:35 PM,79.7,64.2,59,29.76,10.0,Calm,Calm,-,N/A,,Clear,0,2013-09-24 01:35:00
8:55 PM,79.2,63.3,58,29.77,10.0,Calm,Calm,-,N/A,,Clear,0,2013-09-24 01:55:00
9:15 PM,79.5,61.7,54,29.78,10.0,Calm,Calm,-,N/A,,Clear,0,2013-09-24 02:15:00
9:35 PM,77.4,64.8,65,29.79,10.0,Calm,Calm,-,N/A,,Clear,0,2013-09-24 02:35:00
9:55 PM,76.3,63.9,65,29.80,10.0,Calm,Calm,-,N/A,,Clear,0,2013-09-24 02:55:00
10:15 PM,74.8,66.4,75,29.81,10.0,Calm,Calm,-,N/A,,Clear,0,2013-09-24 03:15:00
10:35 PM,75.0,64.4,69,29.81,10.0,Calm,Calm,-,N/A,,Clear,0,2013-09-24 03:35:00
10:55 PM,74.3,64.2,71,29.82,10.0,Calm,Calm,-,N/A,,Clear,0,2013-09-24 03:55:00
11:15 PM,73.6,64.4,73,29.82,10.0,Calm,Calm,-,N/A,,Clear,0,2013-09-24 04:15:00
11:35 PM,74.3,63.9,70,29.82,10.0,Calm,Calm,-,N/A,,Clear,0,2013-09-24 04:35:00
11:55 PM,73.8,64.8,73,29.82,10.0,Calm,Calm,-,N/A,,Clear,0,2013-09-24 04:55:00